Wind_Speed
24 23 21 20 20 19 20 19 19 19 19 19 19 18 18 18 19 19 19 20 20 20 20 21 21 21 22 22 23 23 24 25 26 26 27 27 28 29 30 29 29 30 31
23 23 21 20 19 19 19 19 19 18 18 18 18 18 17 17 18 18 18 18 19 19 20 20 21 21 22 22 22 22 23 24 25 25 26 26 27 28 29 29 30 30 30
23 22 20 19 19 19 18 18 18 18 18 17 17 17 17 18 18 17 17 17 18 18 19 19 20 19 20 21 21 22 23 24 24 25 25 25 26 28 28 29 29 30 30
21 20 20 19 18 17 17 17 17 17 17 17 17 17 17 17 17 16 16 17 17 18 18 19 19 18 19 20 21 21 22 23 24 24 24 24 25 26 27 28 29 29 29
20 19 20 19 18 18 18 17 17 17 17 16 16 16 16 16 15 15 16 16 17 17 17 18 19 18 18 18 19 20 21 22 23 23 24 24 24 24 25 27 28 28 28
19 19 19 18 18 17 17 17 16 17 16 16 15 15 15 15 14 15 15 16 16 16 16 17 17 17 18 18 18 19 19 21 22 23 23 24 24 25 25 25 26 27 27
19 17 17 17 17 17 16 16 16 16 15 14 14 14 15 14 14 14 15 16 16 16 17 17 17 17 17 17 18 19 20 20 21 22 22 23 24 24 24 24 25 26 26
16 15 15 16 16 16 15 16 16 15 13 12 12 14 14 13 13 14 15 16 17 17 18 18 18 18 18 18 19 19 19 19 20 20 20 21 22 23 23 23 23 24 25
15 14 14 15 15 15 15 15 14 13 12 12 13 13 13 12 13 14 16 16 16 17 18 18 18 18 18 18 18 19 18 18 18 19 19 20 20 22 23 23 23 24 24
15 12 12 13 13 14 14 13 12 11 11 11 11 11 12 13 14 15 15 15 16 16 17 17 17 17 18 18 18 17 17 17 18 18 18 18 19 20 21 22 23 23 24
13 11 11 12 13 12 12 12 10 10 11 11 11 11 12 13 14 15 15 16 16 16 16 16 17 17 18 18 17 16 16 16 16 16 16 16 17 18 20 21 22 22 23
12 10 10 11 11 11 11 11 10 10 10 11 11 12 13 14 14 14 15 16 16 17 17 17 17 17 17 17 16 16 15 15 15 16 16 17 17 18 19 20 21 21 22
10 9 10 10 10 11 12 11 10 9 10 11 11 12 13 14 14 14 16 17 17 17 17 17 18 17 17 17 17 16 16 16 15 16 17 17 18 18 19 20 20 20 21
8 9 9 9 10 11 11 10 10 9 10 11 12 12 13 13 14 15 16 17 17 17 17 17 18 17 18 17 17 16 16 17 17 17 17 18 18 19 19 20 20 21 22
7 8 8 8 8 9 9 9 9 10 11 11 11 12 13 14 14 15 16 16 17 17 18 17 18 18 18 17 17 17 17 17 17 17 18 18 18 19 19 19 20 21 22
6 6 6 6 7 8 8 9 9 10 11 12 12 13 13 14 14 15 16 17 18 18 18 18 18 18 18 18 17 17 17 18 18 18 18 18 19 19 19 19 19 20 21
6 6 6 6 7 8 9 9 9 10 10 11 12 13 13 13 14 15 16 17 18 19 18 18 19 19 19 19 19 18 18 19 19 19 19 19 19 20 20 20 20 20 22
5 5 6 6 7 8 9 9 9 9 10 11 13 13 13 13 14 15 16 17 18 19 19 19 20 20 20 20 19 19 20 20 20 21 20 20 20 21 21 21 21 22 22
5 6 6 7 7 8 9 10 10 10 11 11 12 12 13 13 14 15 16 17 18 19 20 21 22 22 21 21 20 20 20 21 21 21 21 21 21 21 21 22 22 22 22
5 6 6 6 7 8 9 10 11 11 11 11 12 13 14 14 15 15 16 18 19 20 21 22 23 23 22 22 21 21 21 21 22 22 21 21 21 22 22 22 22 22 22
5 5 6 6 7 8 9 10 10 11 11 12 13 14 15 16 16 17 17 18 19 20 21 23 23 23 23 22 22 21 22 22 22 22 21 21 21 22 22 22 21 21 22
5 5 5 7 8 9 9 9 10 11 11 12 12 14 15 16 16 17 18 19 20 21 22 23 24 24 24 23 23 22 22 23 23 23 23 22 22 21 21 21 21 21 21
5 5 6 7 8 9 9 9 10 10 11 12 12 13 15 16 17 17 18 19 20 21 22 23 24 25 25 24 24 23 23 23 23 23 23 22 21 21 21 21 22 21 22
4 5 6 7 8 8 9 9 9 10 11 11 12 13 15 16 17 18 19 20 20 21 22 23 24 25 26 26 26 26 25 25 24 23 23 23 22 21 21 21 22 22 22
5 5 6 7 8 8 8 9 10 11 12 12 12 14 15 16 17 18 19 20 21 22 23 24 25 25 26 27 27 27 27 26 25 24 23 23 22 22 21 22 22 23 23
5 5 6 7 8 8 8 9 10 11 12 12 12 13 15 16 17 18 20 20 21 22 23 24 25 26 27 28 28 28 27 26 25 24 23 23 23 22 22 22 23 23 23
Wind_Direction
309 309 308 306 305 305 304 304 304 302 299 297 297 295 292 291 290 288 287 287 287 290 290 286 284 283 280 274 270 268 268 265 264 263 261 260 260 257 255 257 257 255 252
308 309 309 306 306 307 306 307 305 304 303 300 298 296 294 294 293 292 292 291 291 290 289 290 287 284 281 277 275 273 272 269 268 267 264 261 260 259 257 256 256 254 253
306 307 308 308 308 308 307 308 308 306 304 302 301 296 293 294 294 293 294 294 294 293 294 295 292 290 287 280 277 276 275 273 271 270 269 265 262 261 260 258 257 255 254
307 308 310 308 308 310 309 309 309 308 307 305 303 300 298 296 294 294 294 295 297 296 298 298 298 294 290 285 280 278 278 275 273 272 270 268 266 263 262 259 257 255 254
308 310 311 309 307 310 311 311 311 309 308 306 304 304 303 300 297 294 296 297 300 300 300 300 299 296 292 289 284 281 279 279 276 273 270 268 267 265 261 260 259 256 255
309 311 309 308 309 312 313 313 312 311 308 306 305 306 305 303 301 297 295 297 300 301 302 303 302 301 297 294 289 286 283 281 276 273 271 269 267 266 262 261 260 257 256
310 310 309 309 310 312 314 313 315 314 310 305 306 309 310 309 307 305 304 301 301 301 302 303 302 302 301 299 296 294 290 286 280 277 275 271 268 266 264 262 262 259 258
311 310 309 311 314 314 315 314 313 314 315 311 309 312 314 312 311 310 310 305 303 303 303 302 300 300 303 301 298 297 294 289 284 280 277 274 271 268 267 266 264 262 261
312 308 307 310 315 316 317 318 316 317 317 317 316 316 316 315 315 316 316 314 311 309 308 307 304 303 304 305 299 297 295 292 287 282 280 279 274 272 270 267 266 265 263
314 309 308 311 316 317 319 320 320 319 320 321 321 320 319 319 319 320 322 322 318 315 313 312 310 309 307 309 307 304 300 298 296 291 286 283 278 276 273 268 267 267 266
313 311 311 314 319 322 326 325 321 320 321 323 323 323 324 326 326 326 326 325 321 319 318 317 314 311 310 310 309 306 305 304 303 299 293 287 283 280 276 273 270 269 268
312 313 314 315 320 324 331 330 325 323 325 328 328 328 328 329 331 332 332 329 324 320 319 320 320 319 317 316 314 310 309 308 307 304 298 293 289 284 280 279 277 275 272
312 312 315 317 323 326 331 335 331 328 329 329 331 333 332 332 334 337 336 332 329 326 324 325 324 323 321 319 319 318 315 312 309 307 304 300 295 290 285 283 281 278 275
317 315 318 323 329 331 333 338 339 335 331 330 333 336 337 337 338 338 338 338 335 334 333 332 333 329 324 320 320 318 315 313 313 310 304 301 298 294 290 287 283 280 278
322 321 321 326 330 333 335 338 339 338 335 336 340 342 341 341 341 341 341 340 338 338 337 337 335 333 330 325 322 320 318 316 315 313 309 303 299 297 294 290 286 283 282
324 327 328 329 332 336 338 338 340 340 341 346 349 347 344 345 345 344 343 342 342 342 341 340 337 333 330 327 324 321 320 319 316 313 309 305 301 297 294 293 290 287 286
328 332 337 337 340 346 347 345 343 342 342 343 346 347 346 346 345 344 343 343 343 343 343 341 338 335 331 327 325 324 322 319 318 316 312 308 305 301 298 295 293 292 291
341 344 345 344 347 350 351 348 345 346 345 346 348 350 349 347 347 344 344 344 344 344 344 342 340 338 335 331 328 326 325 323 320 318 315 312 308 305 303 299 296 294 293
343 343 344 348 350 352 352 351 350 349 348 349 350 352 352 350 347 346 346 347 346 346 345 344 342 340 339 337 334 331 328 326 323 321 319 315 311 308 306 303 299 298 296
340 341 343 346 348 350 352 352 352 352 351 353 353 353 353 353 351 349 350 350 349 348 346 345 344 344 342 340 338 336 334 332 328 325 321 318 315 313 310 307 304 301 299
329 336 342 341 342 344 346 348 350 350 349 349 350 352 353 353 351 351 351 350 350 349 347 347 347 346 344 341 339 337 334 332 330 328 325 321 318 317 316 313 310 307 304
318 328 336 343 343 342 342 346 348 347 348 349 350 351 352 352 351 351 351 351 350 349 349 348 348 347 346 344 341 338 335 333 332 330 327 324 322 320 319 317 315 313 311
307 318 330 337 340 342 344 345 346 348 349 349 350 352 352 351 350 350 350 349 349 348 348 347 347 347 347 345 342 340 337 335 333 331 329 327 325 323 321 318 317 315 314
303 318 331 338 341 344 346 347 347 347 346 346 347 349 351 351 351 350 349 349 349 349 348 348 347 346 346 345 344 343 341 338 336 334 332 330 328 325 324 323 321 320 318
304 320 333 339 340 341 344 347 348 348 347 348 348 349 350 351 350 349 349 348 348 348 348 347 347 347 346 346 345 344 343 342 340 338 336 334 332 331 329 327 326 324 322
298 316 328 334 339 342 344 347 348 349 352 353 351 350 350 351 350 349 349 348 348 349 348 348 348 348 348 347 346 346 346 345 343 341 339 338 337 336 333 331 330 329 328
Height
5751 5748 5745 5742 5740 5739 5737 5734 5732 5730 5727 5725 5724 5721 5720 5718 5717 5715 5714 5712 5710 5709 5707 5705 5703 5702 5701 5700 5699 5699 5698 5698 5698 5697 5697 5697 5697 5697 5698 5699 5699 5700 5701
5746 5743 5740 5738 5736 5733 5731 5728 5726 5724 5722 5720 5718 5716 5714 5713 5711 5710 5708 5706 5705 5703 5701 5699 5697 5695 5694 5693 5692 5692 5691 5690 5690 5689 5689 5689 5689 5689 5690 5690 5691 5691 5692
5741 5738 5735 5733 5731 5728 5726 5723 5721 5719 5717 5715 5713 5711 5709 5708 5706 5704 5703 5701 5699 5697 5696 5693 5691 5688 5687 5686 5686 5685 5684 5683 5682 5682 5681 5681 5681 5681 5681 5682 5682 5683 5684
5736 5733 5730 5728 5726 5724 5721 5718 5716 5714 5712 5710 5708 5706 5704 5702 5701 5699 5698 5696 5694 5692 5690 5688 5685 5683 5682 5680 5679 5678 5677 5676 5675 5674 5673 5673 5673 5673 5673 5673 5674 5675 5675
5730 5728 5726 5724 5721 5719 5716 5714 5711 5709 5707 5705 5703 5701 5699 5697 5695 5694 5693 5692 5690 5687 5685 5683 5681 5678 5676 5674 5673 5672 5670 5669 5668 5667 5666 5666 5665 5665 5665 5665 5666 5666 5667
5725 5723 5721 5719 5717 5714 5712 5709 5707 5705 5702 5700 5698 5696 5694 5693 5691 5689 5688 5687 5684 5682 5680 5678 5676 5673 5671 5669 5667 5665 5664 5662 5661 5660 5659 5659 5658 5658 5658 5658 5658 5658 5659
5720 5718 5716 5714 5712 5710 5708 5705 5703 5701 5698 5696 5694 5692 5690 5688 5687 5685 5684 5682 5680 5678 5676 5673 5671 5668 5665 5663 5662 5660 5658 5656 5655 5654 5652 5651 5651 5650 5650 5650 5650 5651 5651
5715 5714 5712 5710 5709 5706 5704 5702 5699 5697 5694 5692 5690 5688 5687 5685 5683 5682 5680 5678 5675 5673 5671 5668 5666 5663 5661 5658 5657 5654 5652 5650 5648 5647 5646 5645 5644 5643 5643 5643 5643 5643 5644
5711 5710 5708 5707 5705 5703 5700 5698 5696 5693 5691 5689 5687 5685 5684 5682 5680 5678 5676 5673 5671 5668 5666 5663 5661 5658 5656 5653 5651 5649 5646 5644 5642 5640 5639 5638 5637 5636 5636 5636 5636 5636 5636
5707 5706 5705 5703 5702 5699 5697 5695 5693 5691 5689 5687 5685 5683 5681 5679 5677 5675 5672 5669 5667 5665 5662 5659 5656 5654 5651 5648 5646 5643 5641 5639 5637 5635 5633 5632 5631 5630 5629 5629 5629 5629 5629
5704 5703 5702 5700 5699 5696 5694 5692 5690 5688 5686 5685 5683 5681 5678 5676 5674 5671 5668 5666 5663 5661 5658 5655 5652 5650 5647 5644 5641 5639 5636 5634 5631 5630 5628 5627 5625 5625 5624 5623 5622 5622 5622
5702 5700 5699 5698 5696 5694 5692 5690 5688 5686 5684 5682 5680 5678 5676 5673 5671 5668 5666 5663 5660 5657 5654 5651 5648 5646 5643 5639 5636 5634 5632 5629 5627 5625 5623 5621 5620 5618 5617 5616 5615 5615 5614
5700 5698 5697 5696 5694 5692 5690 5688 5686 5684 5682 5680 5678 5676 5674 5671 5668 5666 5663 5660 5657 5654 5651 5648 5645 5641 5638 5635 5633 5630 5628 5625 5623 5621 5618 5616 5614 5613 5611 5610 5609 5608 5608
5698 5696 5695 5694 5692 5690 5688 5686 5684 5683 5681 5679 5676 5674 5671 5669 5666 5663 5660 5657 5654 5651 5648 5644 5641 5637 5634 5631 5629 5626 5623 5621 5618 5616 5613 5611 5609 5607 5605 5604 5603 5602 5601
5696 5695 5694 5692 5691 5689 5687 5685 5683 5681 5679 5677 5675 5672 5669 5667 5664 5661 5658 5655 5652 5648 5645 5641 5638 5634 5631 5628 5625 5622 5619 5616 5614 5611 5608 5606 5604 5602 5600 5598 5596 5595 5594
5696 5694 5693 5691 5690 5688 5686 5684 5682 5680 5678 5676 5673 5671 5668 5665 5662 5659 5656 5653 5649 5646 5642 5638 5635 5631 5628 5624 5621 5618 5615 5612 5609 5606 5603 5600 5598 5596 5594 5592 5590 5588 5587
5695 5693 5692 5690 5689 5687 5685 5683 5681 5679 5677 5675 5672 5670 5667 5664 5661 5658 5654 5651 5647 5643 5640 5636 5632 5628 5624 5620 5616 5613 5610 5607 5603 5600 5597 5595 5592 5590 5588 5585 5583 5582 5580
5694 5692 5691 5689 5688 5686 5684 5682 5680 5678 5676 5674 5671 5668 5665 5662 5659 5656 5653 5649 5645 5642 5638 5634 5630 5625 5620 5616 5612 5609 5605 5602 5598 5595 5592 5589 5586 5583 5581 5579 5577 5574 5572
5693 5692 5690 5689 5687 5685 5683 5681 5679 5677 5675 5672 5670 5667 5664 5661 5658 5655 5651 5648 5644 5640 5635 5631 5626 5622 5617 5613 5608 5604 5601 5597 5593 5590 5587 5583 5580 5577 5575 5572 5569 5567 5564
5692 5691 5689 5688 5686 5685 5683 5680 5678 5676 5674 5671 5668 5666 5663 5659 5656 5653 5650 5646 5642 5637 5633 5628 5624 5619 5614 5609 5605 5601 5597 5593 5589 5585 5581 5578 5575 5571 5568 5565 5562 5559 5557
5691 5690 5688 5687 5685 5684 5682 5680 5677 5675 5673 5670 5667 5665 5661 5658 5655 5652 5648 5644 5640 5636 5631 5626 5621 5616 5611 5606 5602 5598 5593 5589 5585 5581 5577 5573 5569 5566 5562 5558 5555 5552 5549
5689 5688 5687 5685 5684 5682 5680 5678 5676 5674 5672 5669 5666 5663 5660 5657 5654 5650 5646 5643 5638 5634 5629 5624 5619 5614 5609 5604 5599 5594 5590 5585 5581 5576 5572 5568 5564 5560 5556 5553 5549 5546 5543
5687 5686 5685 5684 5683 5681 5679 5677 5675 5673 5670 5668 5665 5662 5659 5656 5652 5648 5645 5641 5636 5632 5627 5622 5617 5612 5606 5601 5596 5591 5586 5581 5576 5572 5567 5563 5559 5555 5551 5548 5544 5540 5537
5686 5685 5684 5683 5681 5680 5678 5676 5673 5671 5669 5667 5664 5661 5658 5654 5650 5647 5643 5639 5634 5630 5625 5620 5615 5609 5604 5598 5592 5587 5582 5576 5571 5567 5562 5558 5554 5550 5546 5542 5538 5535 5531
5684 5683 5682 5681 5679 5678 5676 5674 5672 5670 5667 5665 5662 5659 5656 5652 5649 5645 5641 5637 5632 5628 5623 5618 5613 5607 5601 5596 5589 5584 5578 5573 5567 5563 5558 5554 5549 5545 5541 5537 5533 5529 5525
5682 5681 5680 5679 5678 5676 5675 5673 5671 5668 5666 5663 5660 5657 5654 5651 5647 5643 5639 5635 5630 5626 5621 5616 5610 5605 5599 5593 5587 5581 5575 5569 5564 5559 5554 5550 5545 5541 5537 5533 5528 5524 5520